Location: Blue Mountain Vista Observatory
(40.6992°N, 75.9422°W)
Time: 11:36:48
(UTC-04:00)

Daily predictions for brighter satellites

Satellite Brightness Start Highest point End
(mag) Time Altitude Azimuth Time Altitude Azimuth Time Altitude Azimuth
SL-19 R/B 4.4 19:12:24 10° SSE 19:17:57 72° ENE 19:23:51 10° NNW
Cosmos 2219 Rocket 3.5 19:15:23 10° SW 19:20:43 44° WNW 19:26:07 10° NNE
Helios 1A 4.1 19:17:39 10° ESE 19:21:05 25° ENE 19:24:31 10° NNE
CZ-2C R/B 4.2 19:18:18 10° SSW 19:22:55 38° W 19:27:26 10° NNW
DMSP B5D1-3 4.5 19:20:12 10° NNE 19:25:20 82° ESE 19:30:25 10° SSW
NOSS 3-2 (A) 3.6 19:20:22 10° SSW 19:26:14 56° ESE 19:32:36 10° NE
Cosmos 2278 Rocket 2.7 19:20:43 10° NNW 19:26:19 65° WSW 19:31:54 10° S
COSMO-SKYMED 1 2.9 19:22:03 10° N 19:26:24 71° WNW 19:30:42 10° SSW
Meteor 1-22 Rocket 4.1 19:21:16 10° S 19:26:32 60° E 19:31:45 10° NNE
Cosmos 1441 Rocket 3.7 19:23:02 10° NNW 19:26:45 63° W 19:30:26 10° S
Cosmos 1378 3.4 19:25:30 10° N 19:29:07 46° E 19:32:42 10° SSE
ALOS 3.5 19:27:27 10° ESE 19:31:01 22° ENE 19:34:35 10° NNE
Cosmos 2297 3.7 19:25:32 10° NNW 19:31:13 69° ENE 19:36:49 10° SSE
OAO 3 Rocket 4.0 19:26:55 10° WSW 19:31:17 37° S 19:35:32 11° ESE
USA 238 DEB 4.3 19:24:54 10° SW 19:31:53 63° NW 19:38:53 10° NNE
Meteor 1-28 Rocket 3.2 19:28:16 10° NNE 19:31:58 58° E 19:35:37 10° S
USA 238 4.3 19:25:00 10° SW 19:31:59 64° NW 19:39:00 10° NNE
ATLAS CENTAUR R/B 3.5 19:27:28 10° SSW 19:32:02 61° ESE 19:45:59 10° NE
CZ-4C R/B 3.1 19:29:43 10° SW 19:34:55 51° NW 19:40:46 10° NNE
Meteor 2-5 Rocket 4.5 19:30:49 10° NNW 19:36:20 58° W 19:41:44 10° S
Meteor 1-24 Rocket 3.7 19:31:14 10° N 19:36:56 82° E 19:42:22 10° SSE
Cosmos 1707 3.7 19:35:27 10° NNW 19:39:12 50° W 19:42:55 10° S
Cosmos 2034 Rocket 4.2 19:38:23 10° SSE 19:44:17 47° E 19:50:18 10° NNE
Cosmos 2369 Rocket 3.9 19:41:29 10° NNE 19:44:42 15° NE 19:47:06 12° ENE
SAR-Lupe-4 4.1 19:41:50 10° S 19:45:21 62° WSW 19:48:55 10° NNW
SJ-6B 3.0 19:42:46 10° S 19:46:43 79° WSW 19:50:47 10° NNW
Cosmos 1464 Rocket 4.0 19:40:37 10° S 19:46:47 67° E 19:52:56 10° NNE
Cosmos 1766 Rocket 3.8 19:42:46 10° N 19:46:59 45° ENE 19:51:09 10° SSE
Timation 1 Rocket 4.3 19:42:15 10° NNW 19:48:14 69° ENE 19:54:09 10° SSE
Cosmos 1603 4.3 19:43:17 10° SSE 19:48:19 33° ESE 19:53:24 10° NE
FREGAT/IRIS 2.6 19:45:33 10° SSE 19:48:38 89° ENE 19:51:45 10° NNW
Cosmos 1437 4.0 19:47:47 10° NNW 19:50:56 44° W 19:54:03 10° S
Cosmos 1758 3.6 19:52:14 10° SSE 19:56:08 47° E 20:00:05 10° NNE
NOSS 3-3 (A) 4.5 19:50:41 10° NNW 19:58:11 75° NE 20:06:07 10° SE
NOSS 3-3 (C) 4.5 19:50:47 10° NNW 19:58:16 75° NE 20:06:13 10° SE
Cosmos 2333 Rocket 4.3 19:55:08 10° WSW 20:00:07 29° NW 20:05:08 10° N
Spot 2 Rocket 3.4 19:56:45 10° SSE 20:01:47 82° ENE 20:06:50 10° NNW
NOSS 3-2 (C) 3.4 19:57:45 10° SSW 20:03:48 82° ESE 20:10:25 10° NE
FengYun 1-2 T 4.2 19:58:29 10° SSE 20:03:56 66° ENE 20:09:22 10° N
Cosmos 1076 Rocket 3.5 19:59:35 10° N 20:03:56 88° E 20:08:17 10° S
CENTAUR R/B 3.5 19:59:39 10° SSE 20:04:04 21° ESE 20:05:41 19° E
ASTEX 1 3.9 20:01:05 10° NNE 20:05:37 37° E 20:10:07 10° SSE
Helios 1B rocket 2.3 20:02:03 10° NNE 20:06:11 82° ESE 20:10:17 10° SSW
GPS 2-04 Rocket1 4.4 20:04:19 10° S 20:06:22 15° SSE 20:06:26 15° SSE
Cosmos 2056 Rocket 4.5 20:01:11 10° NNW 20:06:27 52° WSW 20:11:41 10° S
Cosmos-2242 3.0 20:04:11 10° S 20:08:28 59° E 20:12:47 10° NNE
SL-8 R/B 4.4 20:05:59 10° SSW 20:10:13 32° SE 20:11:40 27° ESE
In-Cosmos 22 4.2 20:08:53 10° N 20:14:42 88° E 20:20:27 10° S
Cosmos 1674 3.5 20:13:31 10° NNE 20:16:58 32° ENE 20:16:58 32° ENE
Cosmos 1842 Rocket 4.0 20:18:06 31° ESE 20:19:08 35° E 20:23:07 10° NNE
Meteor 1-21 Rocket 4.1 20:14:25 10° N 20:20:00 73° E 20:25:31 10° SSE
Atlas Centaur 2 4.3 20:13:39 10° WSW 20:20:45 30° SSW 20:26:11 14° SSE
Cosmos 1500 Rocket 4.1 20:17:05 10° N 20:21:13 38° ENE 20:21:56 35° E
Cosmos 1408 Rocket 3.9 20:17:25 10° NNW 20:21:46 67° W 20:26:02 10° S
ASTRO E2 4.3 20:19:36 10° SW 20:22:44 21° S 20:23:32 20° SSE
Cosmos 1346 3.3 20:25:39 10° N 20:28:07 54° NNE 20:28:07 54° NNE
ATLAS CENTAUR R/B 4.0 20:26:27 10° WNW 20:29:12 17° WSW 20:31:48 10° SSW
Resurs 01 Rocket 2.6 20:27:49 10° S 20:32:06 47° W 20:36:24 10° NNW
Resurs 1-3 4.2 20:29:21 10° S 20:33:39 58° W 20:38:01 10° NNW
ATLAS 5 CENTAUR R/B 2.1 20:28:59 10° SW 20:33:44 68° NW 20:38:55 10° NNE
USA 215 3.6 20:32:23 10° NE 20:38:52 66° NW 20:45:19 10° WSW
CZ-2D R/B 3.3 20:43:00 43° S 20:44:12 78° WSW 20:48:07 10° NNW
SL-16 R/B 3.9 20:40:06 10° WSW 20:45:12 33° WNW 20:50:20 10° N
Cosmos 1743 Rocket 3.7 20:44:54 10° NNW 20:49:21 72° W 20:51:26 30° S
Cosmos 1953 3.9 20:47:19 10° SW 20:51:00 35° WNW 20:54:41 10° N
ERS-1 Rocket 3.5 20:54:53 42° NE 20:54:53 42° NE 20:58:58 10° N
Nadezhda 4 Rocket 4.2 20:51:01 10° NNW 20:57:16 69° W 21:03:24 10° S
Cosmos 1655 Rocket 4.3 20:51:21 10° N 20:57:04 44° ENE 20:57:04 44° ENE
SeaSat 1 2.3 20:54:15 10° NNE 20:59:14 86° ESE 21:04:10 10° SSW
BREEZE-M DEB (TANK) 3.5 20:50:05 10° WNW 21:01:21 57° N 21:02:28 46° NE
GP-B 3.3 20:57:39 10° N 21:01:21 60° NNE 21:01:21 60° NNE
H-2A R/B 3.7 21:01:10 38° SW 21:02:08 47° W 21:05:55 10° NNW
Cosmos 1092 Rocket 3.9 20:57:02 10° N 21:03:17 85° W 21:06:37 29° S
Cosmos 2142 Rocket 4.4 21:02:43 24° S 21:06:49 76° E 21:13:13 10° N
Cosmos 839 Rocket 4.2 21:00:01 10° NNW 21:07:42 61° NE 21:08:43 55° E
ALOS 3.6 21:04:18 12° SSW 21:08:13 37° W 21:12:34 10° NNW
OAO 3 Rocket 4.2 21:09:54 10° WSW 21:13:21 36° SW 21:13:21 36° SW
Cosmos 1634 Rocket 3.9 21:11:03 10° S 21:17:18 85° W 21:23:34 10° N
Cosmos 2026 Rocket 3.8 21:12:50 10° N 21:18:46 72° ENE 21:18:46 72° ENE
H-2A R/B 4.4 21:31:47 17° N 21:31:47 17° N 21:32:51 10° N
Cosmos 2369 Rocket 2.3 21:23:50 10° NNW 21:28:54 73° NNW 21:28:54 73° NNW
Cosmos 1943 Rocket 3.3 21:31:50 10° NNW 21:35:15 33° NNE 21:35:15 33° NNE
Envisat 4.2 21:53:17 38° NW 21:53:17 38° NW 21:56:32 10° NNW
CENTAUR R/B 2.8 21:47:53 10° SW 21:59:44 15° NNE 22:00:46 10° NNE
